{"data":{"norad_id":56034,"epoch":"2026-05-24T22:29:07.118880Z","epoch_age_seconds":87299,"freshness":"FRESH","line1":"1 56034U 23042BA  26144.93688795  .00000213  00000+0  17265-4 0  9991","line2":"2 56034  43.0039 334.8565 0001432 270.5646  89.5042 15.27573935174695","mean_motion":15.27573935,"eccentricity":0.0001432,"inclination_deg":43.0039,"raan_deg":334.8565,"arg_perigee_deg":270.5646,"mean_anomaly_deg":89.5042,"bstar":1.7265e-5,"rev_number":17469,"period_min":94.267122985442,"perigee_km":482.08473244203,"apogee_km":484.0497813412,"semimajor_km":6861.2042568916,"source":"CELESTRAK","updated_at":"2026-05-25T13:38:17.951292Z"}}